| time (UTC) | temp C | wind direction | speed KPH | gust KPH | rain 1hr cm | rain 24hr cm | rain mn cm | humidity % | barometer mb |
| 20260508071536 | 20 | 0 | 0.0 | 0.0 | 0.00 | 0.00 | 0.00 | 94 | 1012.8 |
| 20260508071022 | 20 | 0 | 0.0 | 0.0 | 0.00 | 0.00 | 0.00 | 94 | 1012.9 |
| 20260508070517 | 20 | 0 | 0.0 | 0.0 | 0.00 | 0.00 | 0.00 | 94 | 1012.9 |
| 20260508070036 | 20 | 0 | 0.0 | 0.0 | 0.00 | 0.00 | 0.00 | 94 | 1012.8 |
| 20260508065516 | 20 | 0 | 0.0 | 0.0 | 0.00 | 0.00 | 0.00 | 93 | 1012.9 |
| 20260508065016 | 20 | 0 | 0.0 | 0.0 | 0.00 | 0.00 | 0.00 | 93 | 1012.9 |
| 20260508064551 | 20 | 0 | 0.0 | 0.0 | 0.00 | 0.00 | 0.00 | 94 | 1013.0 |
| 20260508064017 | 21 | 0 | 0.0 | 0.0 | 0.00 | 0.00 | 0.00 | 94 | 1013.1 |
| 20260508063517 | 21 | 0 | 0.0 | 0.0 | 0.00 | 0.00 | 0.00 | 94 | 1013.1 |
| 20260508063041 | 20 | 0 | 0.0 | 0.0 | 0.00 | 0.00 | 0.00 | 94 | 1013.1 |
| 20260508062516 | 20 | 0 | 0.0 | 0.0 | 0.00 | 0.00 | 0.00 | 93 | 1013.3 |
| 20260508062016 | 20 | 0 | 0.0 | 0.0 | 0.00 | 0.00 | 0.00 | 93 | 1013.2 |
| 20260508061537 | 20 | 0 | 0.0 | 0.0 | 0.00 | 0.00 | 0.00 | 93 | 1013.3 |
| 20260508061023 | 20 | 0 | 0.0 | 0.0 | 0.00 | 0.00 | 0.00 | 93 | 1013.4 |
| 20260508060517 | 20 | 0 | 0.0 | 0.0 | 0.00 | 0.00 | 0.00 | 93 | 1013.4 |
| 20260508060038 | 21 | 0 | 0.0 | 0.0 | 0.00 | 0.00 | 0.00 | 93 | 1013.4 |
| 20260508055516 | 21 | 0 | 0.0 | 0.0 | 0.00 | 0.00 | 0.00 | 93 | 1013.4 |
| 20260508055020 | 21 | 0 | 0.0 | 0.0 | 0.00 | 0.00 | 0.00 | 93 | 1013.5 |
| 20260508054537 | 21 | 0 | 0.0 | 0.0 | 0.00 | 0.00 | 0.00 | 93 | 1013.5 |
| 20260508054021 | 21 | 0 | 0.0 | 0.0 | 0.00 | 0.00 | 0.00 | 93 | 1013.5 |
| 20260508053520 | 21 | 0 | 0.0 | 0.0 | 0.00 | 0.00 | 0.00 | 93 | 1013.5 |
| 20260508053036 | 21 | 0 | 0.0 | 0.0 | 0.00 | 0.00 | 0.00 | 92 | 1013.6 |
| 20260508052520 | 21 | 0 | 0.0 | 0.0 | 0.00 | 0.00 | 0.00 | 92 | 1013.6 |
| 20260508052016 | 21 | 0 | 0.0 | 0.0 | 0.00 | 0.00 | 0.00 | 92 | 1013.5 |
| 20260508051535 | 21 | 0 | 0.0 | 0.0 | 0.00 | 0.00 | 0.00 | 92 | 1013.6 |
| 20260508051020 | 21 | 0 | 0.0 | 0.0 | 0.00 | 0.00 | 0.00 | 92 | 1013.5 |
| 20260508050517 | 21 | 0 | 0.0 | 0.0 | 0.00 | 0.00 | 0.00 | 92 | 1013.6 |
| 20260508050039 | 21 | 0 | 0.0 | 0.0 | 0.00 | 0.00 | 0.00 | 92 | 1013.6 |
| 20260508045516 | 21 | 0 | 0.0 | 0.0 | 0.00 | 0.00 | 0.00 | 92 | 1013.6 |
| 20260508045016 | 21 | 0 | 0.0 | 0.0 | 0.00 | 0.00 | 0.00 | 92 | 1013.7 |
| 20260508044538 | 21 | 0 | 0.0 | 0.0 | 0.00 | 0.00 | 0.00 | 92 | 1013.6 |
| 20260508044017 | 21 | 0 | 0.0 | 0.0 | 0.00 | 0.00 | 0.00 | 91 | 1013.7 |
| 20260508043516 | 21 | 0 | 0.0 | 0.0 | 0.00 | 0.00 | 0.00 | 91 | 1013.9 |
| 20260508043041 | 21 | 0 | 0.0 | 0.0 | 0.00 | 0.00 | 0.00 | 91 | 1013.8 |
| 20260508042516 | 21 | 0 | 0.0 | 0.0 | 0.00 | 0.00 | 0.00 | 91 | 1013.8 |
| 20260508042016 | 21 | 0 | 0.0 | 3.2 | 0.00 | 0.00 | 0.00 | 91 | 1013.9 |
| 20260508041537 | 21 | 0 | 0.0 | 3.2 | 0.00 | 0.00 | 0.00 | 90 | 1013.8 |
| 20260508041020 | 21 | 265 | 1.6 | 3.2 | 0.00 | 0.00 | 0.00 | 90 | 1013.8 |
| 20260508040521 | 21 | 0 | 0.0 | 0.0 | 0.00 | 0.00 | 0.00 | 90 | 1013.8 |
| 20260508040040 | 22 | 0 | 0.0 | 3.2 | 0.00 | 0.00 | 0.00 | 90 | 1013.8 |
| 20260508035521 | 22 | 0 | 0.0 | 3.2 | 0.00 | 0.00 | 0.00 | 90 | 1013.8 |
| 20260508035021 | 22 | 0 | 1.6 | 3.2 | 0.00 | 0.00 | 0.00 | 90 | 1013.9 |
| 20260508034534 | 22 | 265 | 1.6 | 3.2 | 0.00 | 0.00 | 0.00 | 89 | 1013.8 |
| 20260508034019 | 22 | 0 | 0.0 | 6.4 | 0.00 | 0.00 | 0.00 | 89 | 1013.9 |
| 20260508033516 | 22 | 265 | 1.6 | 6.4 | 0.00 | 0.00 | 0.00 | 89 | 1013.9 |
| 20260508033041 | 22 | 252 | 1.6 | 6.4 | 0.00 | 0.00 | 0.00 | 89 | 1013.8 |
| 20260508032522 | 22 | 267 | 3.2 | 6.4 | 0.00 | 0.00 | 0.00 | 89 | 1013.9 |
| 20260508032017 | 22 | 270 | 3.2 | 4.8 | 0.00 | 0.00 | 0.00 | 88 | 1013.8 |
| 20260508031538 | 22 | 270 | 3.2 | 4.8 | 0.00 | 0.00 | 0.00 | 88 | 1013.7 |
| 20260508031020 | 22 | 273 | 1.6 | 4.8 | 0.00 | 0.00 | 0.00 | 87 | 1013.6 |
| 20260508030516 | 22 | 273 | 3.2 | 6.4 | 0.00 | 0.00 | 0.00 | 87 | 1013.6 |
| 20260508030039 | 22 | 263 | 1.6 | 6.4 | 0.00 | 0.00 | 0.00 | 87 | 1013.7 |
| 20260508025521 | 22 | 246 | 1.6 | 6.4 | 0.00 | 0.00 | 0.00 | 87 | 1013.7 |
| 20260508025019 | 22 | 257 | 4.8 | 6.4 | 0.00 | 0.00 | 0.00 | 87 | 1013.6 |
| 20260508024544 | 22 | 273 | 4.8 | 6.4 | 0.00 | 0.00 | 0.00 | 86 | 1013.6 |
| 20260508024024 | 22 | 269 | 3.2 | 9.7 | 0.00 | 0.00 | 0.00 | 85 | 1013.6 |
| 20260508023520 | 22 | 261 | 4.8 | 9.7 | 0.00 | 0.00 | 0.00 | 85 | 1013.5 |
| 20260508023039 | 23 | 259 | 4.8 | 9.7 | 0.00 | 0.00 | 0.00 | 84 | 1013.5 |
| 20260508022517 | 23 | 267 | 4.8 | 9.7 | 0.00 | 0.00 | 0.00 | 84 | 1013.6 |
| 20260508022019 | 23 | 269 | 4.8 | 11.3 | 0.00 | 0.00 | 0.00 | 83 | 1013.5 |
| 20260508021543 | 23 | 263 | 4.8 | 12.9 | 0.00 | 0.00 | 0.00 | 83 | 1013.6 |
| 20260508021023 | 23 | 273 | 6.4 | 12.9 | 0.00 | 0.00 | 0.00 | 82 | 1013.5 |
| 20260508020516 | 23 | 281 | 8.0 | 12.9 | 0.00 | 0.00 | 0.00 | 82 | 1013.5 |
| 20260508020038 | 23 | 277 | 8.0 | 12.9 | 0.00 | 0.00 | 0.00 | 81 | 1013.5 |
| 20260508015521 | 23 | 260 | 4.8 | 12.9 | 0.00 | 0.00 | 0.00 | 80 | 1013.5 |
| 20260508015016 | 23 | 234 | 3.2 | 14.5 | 0.00 | 0.00 | 0.00 | 79 | 1013.5 |
| 20260508014548 | 24 | 259 | 4.8 | 14.5 | 0.00 | 0.00 | 0.00 | 78 | 1013.5 |
| 20260508014021 | 24 | 263 | 9.7 | 16.1 | 0.00 | 0.00 | 0.00 | 78 | 1013.5 |
| 20260508013520 | 24 | 259 | 9.7 | 16.1 | 0.00 | 0.00 | 0.00 | 77 | 1013.5 |
| 20260508013043 | 24 | 270 | 9.7 | 16.1 | 0.00 | 0.00 | 0.00 | 76 | 1013.5 |
| 20260508012522 | 25 | 264 | 8.0 | 16.1 | 0.00 | 0.00 | 0.00 | 76 | 1013.4 |
| 20260508012020 | 25 | 268 | 8.0 | 14.5 | 0.00 | 0.00 | 0.00 | 75 | 1013.4 |
| 20260508011541 | 25 | 259 | 8.0 | 16.1 | 0.00 | 0.00 | 0.00 | 74 | 1013.4 |
| 20260508011020 | 25 | 278 | 9.7 | 16.1 | 0.00 | 0.00 | 0.00 | 74 | 1013.3 |
| 20260508010520 | 25 | 273 | 9.7 | 16.1 | 0.00 | 0.00 | 0.00 | 73 | 1013.3 |
| 20260508010034 | 25 | 256 | 6.4 | 12.9 | 0.00 | 0.00 | 0.00 | 72 | 1013.2 |
| 20260508005525 | 25 | 284 | 8.0 | 12.9 | 0.00 | 0.00 | 0.00 | 71 | 1013.2 |
| 20260508005022 | 25 | 287 | 6.4 | 12.9 | 0.00 | 0.00 | 0.00 | 70 | 1013.1 |
| 20260508004542 | 25 | 268 | 6.4 | 12.9 | 0.00 | 0.00 | 0.00 | 70 | 1013.0 |
| 20260508004019 | 26 | 261 | 6.4 | 14.5 | 0.00 | 0.00 | 0.00 | 68 | 1013.1 |
| 20260508003518 | 26 | 270 | 8.0 | 14.5 | 0.00 | 0.00 | 0.00 | 68 | 1013.1 |
| 20260508003056 | 26 | 242 | 6.4 | 12.9 | 0.00 | 0.00 | 0.00 | 67 | 1013.1 |
| 20260508002520 | 26 | 285 | 4.8 | 12.9 | 0.00 | 0.00 | 0.00 | 66 | 1013.1 |
| 20260508002022 | 26 | 278 | 8.0 | 12.9 | 0.00 | 0.00 | 0.00 | 66 | 1013.1 |
| 20260508001539 | 26 | 256 | 4.8 | 11.3 | 0.00 | 0.00 | 0.00 | 65 | 1013.2 |
| 20260508001020 | 26 | 273 | 3.2 | 16.1 | 0.00 | 0.00 | 0.00 | 64 | 1013.1 |
| 20260508000517 | 27 | 273 | 4.8 | 16.1 | 0.00 | 0.00 | 0.00 | 63 | 1013.0 |
| 20260508000042 | 27 | 304 | 8.0 | 14.5 | 0.00 | 0.00 | 0.00 | 62 | 1013.0 |
| 20260507235520 | 27 | 257 | 6.4 | 17.7 | 0.00 | 0.00 | 0.00 | 61 | 1012.9 |
| 20260507235019 | 27 | 275 | 9.7 | 19.3 | 0.00 | 0.00 | 0.00 | 60 | 1012.9 |
| 20260507234541 | 27 | 266 | 9.7 | 19.3 | 0.00 | 0.00 | 0.00 | 59 | 1012.9 |
| 20260507234019 | 27 | 279 | 11.3 | 19.3 | 0.00 | 0.00 | 0.00 | 58 | 1012.9 |
| 20260507233520 | 28 | 261 | 12.9 | 19.3 | 0.00 | 0.00 | 0.00 | 57 | 1012.8 |
| 20260507233038 | 28 | 254 | 11.3 | 17.7 | 0.00 | 0.00 | 0.00 | 58 | 1012.8 |
| 20260507232523 | 28 | 259 | 9.7 | 19.3 | 0.00 | 0.00 | 0.00 | 57 | 1012.8 |
| 20260507232020 | 28 | 265 | 8.0 | 19.3 | 0.00 | 0.00 | 0.00 | 56 | 1012.7 |
| 20260507231540 | 28 | 274 | 11.3 | 20.9 | 0.00 | 0.00 | 0.00 | 54 | 1012.8 |
| 20260507231023 | 28 | 245 | 11.3 | 22.5 | 0.00 | 0.00 | 0.00 | 53 | 1012.7 |
| 20260507230519 | 29 | 286 | 14.5 | 22.5 | 0.00 | 0.00 | 0.00 | 53 | 1012.8 |
| 20260507230042 | 29 | 256 | 16.1 | 24.1 | 0.00 | 0.00 | 0.00 | 52 | 1012.8 |
| 20260507225523 | 30 | 261 | 17.7 | 24.1 | 0.00 | 0.00 | 0.00 | 50 | 1012.7 |
| 20260507225020 | 30 | 277 | 12.9 | 24.1 | 0.00 | 0.00 | 0.00 | 48 | 1012.7 |
| 20260507224552 | 30 | 298 | 14.5 | 24.1 | 0.00 | 0.00 | 0.00 | 47 | 1012.7 |
| 20260507224020 | 30 | 279 | 11.3 | 22.5 | 0.00 | 0.00 | 0.00 | 44 | 1012.6 |
| 20260507223520 | 30 | 262 | 11.3 | 22.5 | 0.00 | 0.00 | 0.00 | 43 | 1012.7 |
| 20260507223035 | 30 | 269 | 14.5 | 22.5 | 0.00 | 0.00 | 0.00 | 41 | 1012.7 |
| 20260507222520 | 31 | 268 | 9.7 | 20.9 | 0.00 | 0.00 | 0.00 | 39 | 1012.6 |
| 20260507222019 | 30 | 248 | 11.3 | 20.9 | 0.00 | 0.00 | 0.00 | 37 | 1012.7 |
| 20260507221532 | 30 | 275 | 12.9 | 22.5 | 0.00 | 0.00 | 0.00 | 37 | 1012.6 |
| 20260507221022 | 31 | 279 | 14.5 | 25.7 | 0.00 | 0.00 | 0.00 | 35 | 1012.6 |
| 20260507220522 | 31 | 273 | 16.1 | 25.7 | 0.00 | 0.00 | 0.00 | 34 | 1012.5 |
| 20260507220040 | 31 | 285 | 16.1 | 24.1 | 0.00 | 0.00 | 0.00 | 35 | 1012.5 |
| 20260507215523 | 31 | 261 | 14.5 | 27.4 | 0.00 | 0.00 | 0.00 | 34 | 1012.6 |
| 20260507215021 | 31 | 259 | 19.3 | 27.4 | 0.00 | 0.00 | 0.00 | 33 | 1012.6 |
| 20260507214537 | 31 | 296 | 12.9 | 27.4 | 0.00 | 0.00 | 0.00 | 33 | 1012.6 |
| 20260507214020 | 31 | 285 | 12.9 | 27.4 | 0.00 | 0.00 | 0.00 | 34 | 1012.7 |
| 20260507213520 | 32 | 280 | 17.7 | 27.4 | 0.00 | 0.00 | 0.00 | 34 | 1012.5 |
| 20260507213040 | 32 | 255 | 14.5 | 29.0 | 0.00 | 0.00 | 0.00 | 34 | 1012.6 |
| 20260507212520 | 32 | 268 | 6.4 | 29.0 | 0.00 | 0.00 | 0.00 | 32 | 1012.7 |
| 20260507212020 | 32 | 255 | 14.5 | 24.1 | 0.00 | 0.00 | 0.00 | 31 | 1012.6 |
| 20260507211543 | 32 | 263 | 16.1 | 29.0 | 0.00 | 0.00 | 0.00 | 30 | 1012.5 |
| 20260507211019 | 32 | 253 | 19.3 | 29.0 | 0.00 | 0.00 | 0.00 | 31 | 1012.6 |
| 20260507210521 | 32 | 262 | 19.3 | 29.0 | 0.00 | 0.00 | 0.00 | 31 | 1012.6 |
| 20260507210039 | 32 | 271 | 20.9 | 27.4 | 0.00 | 0.00 | 0.00 | 30 | 1012.6 |
| 20260507205520 | 32 | 284 | 17.7 | 30.6 | 0.00 | 0.00 | 0.00 | 29 | 1012.7 |
| 20260507205020 | 32 | 272 | 16.1 | 30.6 | 0.00 | 0.00 | 0.00 | 29 | 1012.6 |
| 20260507204543 | 33 | 284 | 19.3 | 30.6 | 0.00 | 0.00 | 0.00 | 29 | 1012.7 |
| 20260507204019 | 33 | 267 | 19.3 | 29.0 | 0.00 | 0.00 | 0.00 | 27 | 1012.7 |
| 20260507203520 | 33 | 272 | 14.5 | 25.7 | 0.00 | 0.00 | 0.00 | 30 | 1012.7 |
| 20260507203041 | 33 | 277 | 14.5 | 27.4 | 0.00 | 0.00 | 0.00 | 30 | 1012.7 |
| 20260507202519 | 33 | 260 | 17.7 | 27.4 | 0.00 | 0.00 | 0.00 | 33 | 1012.5 |
| 20260507202020 | 33 | 265 | 19.3 | 25.7 | 0.00 | 0.00 | 0.00 | 32 | 1012.6 |
| 20260507201537 | 33 | 295 | 16.1 | 25.7 | 0.00 | 0.00 | 0.00 | 32 | 1012.7 |
| 20260507201020 | 33 | 275 | 16.1 | 25.7 | 0.00 | 0.00 | 0.00 | 33 | 1012.7 |
| 20260507200521 | 33 | 271 | 14.5 | 35.4 | 0.00 | 0.00 | 0.00 | 33 | 1012.8 |
| 20260507200038 | 33 | 294 | 16.1 | 35.4 | 0.00 | 0.00 | 0.00 | 32 | 1012.9 |
| 20260507195520 | 33 | 274 | 19.3 | 30.6 | 0.00 | 0.00 | 0.00 | 34 | 1012.8 |
| 20260507195020 | 33 | 265 | 20.9 | 30.6 | 0.00 | 0.00 | 0.00 | 34 | 1012.9 |
| 20260507194539 | 33 | 290 | 14.5 | 30.6 | 0.00 | 0.00 | 0.00 | 35 | 1013.0 |
| 20260507194020 | 33 | 257 | 20.9 | 30.6 | 0.00 | 0.00 | 0.00 | 37 | 1013.0 |
| 20260507193520 | 33 | 314 | 20.9 | 29.0 | 0.00 | 0.00 | 0.00 | 38 | 1013.1 |
| 20260507193043 | 33 | 232 | 16.1 | 30.6 | 0.00 | 0.00 | 0.00 | 40 | 1013.0 |
| 20260507192519 | 33 | 288 | 19.3 | 30.6 | 0.00 | 0.00 | 0.00 | 41 | 1013.0 |
| 20260507192017 | 34 | 276 | 19.3 | 27.4 | 0.00 | 0.00 | 0.00 | 43 | 1013.1 |
| 20260507191539 | 33 | 249 | 17.7 | 27.4 | 0.00 | 0.00 | 0.00 | 46 | 1013.0 |
| 20260507191016 | 34 | 277 | 17.7 | 27.4 | 0.00 | 0.00 | 0.00 | 44 | 1013.1 |
| 20260507190518 | 34 | 308 | 14.5 | 27.4 | 0.00 | 0.00 | 0.00 | 43 | 1013.1 |
| 20260507190038 | 35 | 274 | 14.5 | 27.4 | 0.00 | 0.00 | 0.00 | 36 | 1013.2 |
| 20260507185517 | 35 | 252 | 4.8 | 22.5 | 0.00 | 0.00 | 0.00 | 31 | 1013.3 |
| 20260507185017 | 34 | 253 | 11.3 | 22.5 | 0.00 | 0.00 | 0.00 | 34 | 1013.4 |
| 20260507184537 | 35 | 274 | 6.4 | 20.9 | 0.00 | 0.00 | 0.00 | 32 | 1013.5 |
| 20260507184018 | 35 | 225 | 12.9 | 27.4 | 0.00 | 0.00 | 0.00 | 32 | 1013.6 |
| 20260507183517 | 35 | 259 | 16.1 | 27.4 | 0.00 | 0.00 | 0.00 | 31 | 1013.7 |
| 20260507183036 | 34 | 260 | 4.8 | 19.3 | 0.00 | 0.00 | 0.00 | 32 | 1013.7 |
| 20260507182517 | 33 | 235 | 3.2 | 24.1 | 0.00 | 0.00 | 0.00 | 30 | 1013.8 |
| 20260507182017 | 34 | 243 | 14.5 | 24.1 | 0.00 | 0.00 | 0.00 | 30 | 1014.0 |
| 20260507181535 | 34 | 290 | 12.9 | 24.1 | 0.00 | 0.00 | 0.00 | 30 | 1013.9 |
| 20260507181023 | 34 | 272 | 6.4 | 30.6 | 0.00 | 0.00 | 0.00 | 31 | 1014.1 |
| 20260507180520 | 34 | 266 | 6.4 | 30.6 | 0.00 | 0.00 | 0.00 | 30 | 1014.1 |
| 20260507180046 | 34 | 252 | 11.3 | 25.7 | 0.00 | 0.00 | 0.00 | 32 | 1014.1 |
| 20260507175520 | 35 | 256 | 3.2 | 11.3 | 0.00 | 0.00 | 0.00 | 33 | 1014.2 |
| 20260507175018 | 35 | 309 | 3.2 | 17.7 | 0.00 | 0.00 | 0.00 | 33 | 1014.4 |
| 20260507174540 | 34 | 270 | 3.2 | 17.7 | 0.00 | 0.00 | 0.00 | 33 | 1014.4 |
| 20260507174017 | 34 | 157 | 3.2 | 25.7 | 0.00 | 0.00 | 0.00 | 33 | 1014.4 |
| 20260507173517 | 33 | 258 | 1.6 | 25.7 | 0.00 | 0.00 | 0.00 | 34 | 1014.5 |
| 20260507173038 | 33 | 238 | 9.7 | 25.7 | 0.00 | 0.00 | 0.00 | 34 | 1014.5 |
| 20260507172518 | 34 | 271 | 9.7 | 24.1 | 0.00 | 0.00 | 0.00 | 36 | 1014.5 |
| 20260507172017 | 33 | 215 | 6.4 | 24.1 | 0.00 | 0.00 | 0.00 | 35 | 1014.5 |
| 20260507171537 | 33 | 258 | 3.2 | 25.7 | 0.00 | 0.00 | 0.00 | 34 | 1014.4 |
| 20260507171017 | 33 | 248 | 8.0 | 25.7 | 0.00 | 0.00 | 0.00 | 34 | 1014.5 |
| 20260507170517 | 33 | 277 | 8.0 | 22.5 | 0.00 | 0.00 | 0.00 | 35 | 1014.5 |
| 20260507170037 | 32 | 213 | 9.7 | 22.5 | 0.00 | 0.00 | 0.00 | 35 | 1014.5 |
| 20260507165517 | 33 | 241 | 8.0 | 22.5 | 0.00 | 0.00 | 0.00 | 32 | 1014.5 |
| 20260507165017 | 33 | 244 | 3.2 | 17.7 | 0.00 | 0.00 | 0.00 | 32 | 1014.4 |
| 20260507164535 | 33 | 198 | 4.8 | 19.3 | 0.00 | 0.00 | 0.00 | 32 | 1014.4 |
| 20260507164019 | 33 | 249 | 9.7 | 20.9 | 0.00 | 0.00 | 0.00 | 34 | 1014.5 |
| 20260507163520 | 32 | 136 | 6.4 | 20.9 | 0.00 | 0.00 | 0.00 | 35 | 1014.6 |
| 20260507163038 | 33 | 240 | 3.2 | 16.1 | 0.00 | 0.00 | 0.00 | 35 | 1014.6 |
| 20260507162517 | 33 | 200 | 3.2 | 25.7 | 0.00 | 0.00 | 0.00 | 35 | 1014.7 |
| 20260507162021 | 32 | 236 | 4.8 | 25.7 | 0.00 | 0.00 | 0.00 | 34 | 1014.8 |
| 20260507161541 | 32 | 253 | 16.1 | 25.7 | 0.00 | 0.00 | 0.00 | 36 | 1014.7 |
| 20260507161016 | 32 | 225 | 3.2 | 19.3 | 0.00 | 0.00 | 0.00 | 34 | 1014.9 |
| 20260507160521 | 33 | 194 | 4.8 | 22.5 | 0.00 | 0.00 | 0.00 | 38 | 1014.9 |
| 20260507160039 | 32 | 213 | 4.8 | 22.5 | 0.00 | 0.00 | 0.00 | 38 | 1014.9 |
| 20260507155517 | 32 | 118 | 3.2 | 27.4 | 0.00 | 0.00 | 0.00 | 38 | 1014.9 |
| 20260507155107 | 32 | 269 | 3.2 | 27.4 | 0.00 | 0.00 | 0.00 | 35 | 1015.0 |
| 20260507154538 | 32 | 134 | 3.2 | 12.9 | 0.00 | 0.00 | 0.00 | 36 | 1015.0 |
| 20260507154017 | 32 | 234 | 3.2 | 20.9 | 0.00 | 0.00 | 0.00 | 35 | 1015.1 |
| 20260507153518 | 31 | 227 | 9.7 | 20.9 | 0.00 | 0.00 | 0.00 | 36 | 1015.0 |
| 20260507153036 | 32 | 201 | 1.6 | 17.7 | 0.00 | 0.00 | 0.00 | 39 | 1015.0 |
| 20260507152519 | 31 | 225 | 4.8 | 17.7 | 0.00 | 0.00 | 0.00 | 41 | 1015.0 |
| 20260507152020 | 31 | 262 | 3.2 | 12.9 | 0.00 | 0.00 | 0.00 | 45 | 1015.1 |
| 20260507151535 | 31 | 266 | 1.6 | 8.0 | 0.00 | 0.00 | 0.00 | 45 | 1015.0 |
| 20260507151020 | 31 | 215 | 1.6 | 12.9 | 0.00 | 0.00 | 0.00 | 45 | 1015.1 |
| 20260507150518 | 31 | 206 | 3.2 | 12.9 | 0.00 | 0.00 | 0.00 | 47 | 1015.1 |
| 20260507150038 | 31 | 200 | 3.2 | 11.3 | 0.00 | 0.00 | 0.00 | 46 | 1015.1 |
| 20260507145516 | 30 | 182 | 3.2 | 12.9 | 0.00 | 0.00 | 0.00 | 47 | 1015.1 |
| 20260507145019 | 31 | 122 | 3.2 | 12.9 | 0.00 | 0.00 | 0.00 | 48 | 1015.2 |
| 20260507144538 | 30 | 168 | 3.2 | 11.3 | 0.00 | 0.00 | 0.00 | 52 | 1015.1 |
| 20260507144017 | 30 | 159 | 1.6 | 12.9 | 0.00 | 0.00 | 0.00 | 56 | 1015.2 |
| 20260507143517 | 29 | 192 | 6.4 | 12.9 | 0.00 | 0.00 | 0.00 | 57 | 1015.1 |
| 20260507143038 | 29 | 169 | 3.2 | 11.3 | 0.00 | 0.00 | 0.00 | 57 | 1015.2 |
| 20260507142517 | 30 | 234 | 1.6 | 11.3 | 0.00 | 0.00 | 0.00 | 56 | 1015.1 |
| 20260507142017 | 29 | 51 | 3.2 | 17.7 | 0.00 | 0.00 | 0.00 | 60 | 1015.3 |
| 20260507141538 | 28 | 144 | 6.4 | 17.7 | 0.00 | 0.00 | 0.00 | 60 | 1015.3 |
| 20260507141017 | 28 | 136 | 8.0 | 14.5 | 0.00 | 0.00 | 0.00 | 61 | 1015.3 |
| 20260507140517 | 28 | 126 | 4.8 | 14.5 | 0.00 | 0.00 | 0.00 | 63 | 1015.3 |
| 20260507140044 | 28 | 146 | 6.4 | 14.5 | 0.00 | 0.00 | 0.00 | 64 | 1015.3 |
| 20260507135517 | 28 | 129 | 3.2 | 11.3 | 0.00 | 0.00 | 0.00 | 68 | 1015.2 |
| 20260507135021 | 27 | 155 | 1.6 | 14.5 | 0.00 | 0.00 | 0.00 | 69 | 1015.3 |
| 20260507134535 | 27 | 187 | 4.8 | 14.5 | 0.00 | 0.00 | 0.00 | 69 | 1015.3 |
| 20260507134020 | 27 | 182 | 1.6 | 11.3 | 0.00 | 0.00 | 0.00 | 69 | 1015.3 |
| 20260507133520 | 27 | 176 | 4.8 | 12.9 | 0.00 | 0.00 | 0.00 | 71 | 1015.4 |
| 20260507133042 | 26 | 131 | 6.4 | 12.9 | 0.00 | 0.00 | 0.00 | 73 | 1015.3 |
| 20260507132516 | 26 | 122 | 4.8 | 12.9 | 0.00 | 0.00 | 0.00 | 75 | 1015.2 |
| 20260507132020 | 26 | 121 | 4.8 | 12.9 | 0.00 | 0.00 | 0.00 | 75 | 1015.2 |
| 20260507131543 | 26 | 170 | 6.4 | 14.5 | 0.00 | 0.00 | 0.00 | 76 | 1015.3 |
| 20260507131017 | 25 | 169 | 3.2 | 14.5 | 0.00 | 0.00 | 0.00 | 78 | 1015.2 |
| 20260507130517 | 25 | 175 | 4.8 | 14.5 | 0.00 | 0.00 | 0.00 | 78 | 1015.2 |
| 20260507130038 | 25 | 138 | 4.8 | 12.9 | 0.00 | 0.00 | 0.00 | 78 | 1015.0 |
| 20260507125520 | 25 | 172 | 4.8 | 12.9 | 0.00 | 0.00 | 0.00 | 79 | 1015.1 |
| 20260507125017 | 24 | 115 | 4.8 | 12.9 | 0.00 | 0.00 | 0.00 | 80 | 1015.0 |
| 20260507124537 | 24 | 134 | 3.2 | 12.9 | 0.00 | 0.00 | 0.00 | 82 | 1015.0 |
| 20260507124021 | 23 | 111 | 4.8 | 12.9 | 0.00 | 0.00 | 0.00 | 83 | 1015.0 |
| 20260507123519 | 23 | 108 | 3.2 | 14.5 | 0.00 | 0.00 | 0.00 | 85 | 1015.0 |
| 20260507123036 | 23 | 165 | 4.8 | 14.5 | 0.00 | 0.00 | 0.00 | 86 | 1014.8 |
| 20260507122517 | 22 | 142 | 6.4 | 14.5 | 0.00 | 0.00 | 0.00 | 88 | 1014.9 |
| 20260507122017 | 22 | 144 | 3.2 | 12.9 | 0.00 | 0.00 | 0.00 | 91 | 1014.9 |
| 20260507121535 | 22 | 116 | 4.8 | 12.9 | 0.00 | 0.00 | 0.00 | 92 | 1014.8 |
| 20260507121017 | 21 | 150 | 1.6 | 9.7 | 0.00 | 0.00 | 0.00 | 94 | 1014.8 |
| 20260507120516 | 21 | 138 | 3.2 | 8.0 | 0.00 | 0.00 | 0.00 | 95 | 1014.9 |
| 20260507120043 | 20 | 94 | 1.6 | 6.4 | 0.00 | 0.00 | 0.00 | 95 | 1014.8 |
| 20260507115522 | 20 | 121 | 1.6 | 4.8 | 0.00 | 0.00 | 0.00 | 95 | 1014.8 |
| 20260507115021 | 20 | 136 | 0.0 | 3.2 | 0.00 | 0.00 | 0.00 | 95 | 1014.8 |
| 20260507114538 | 19 | 101 | 1.6 | 3.2 | 0.00 | 0.00 | 0.00 | 95 | 1014.9 |
| 20260507114016 | 18 | 0 | 0.0 | 1.6 | 0.00 | 0.00 | 0.00 | 95 | 1014.8 |
| 20260507113519 | 18 | 47 | 0.0 | 1.6 | 0.00 | 0.00 | 0.00 | 95 | 1014.8 |
| 20260507113040 | 18 | 0 | 0.0 | 0.0 | 0.00 | 0.00 | 0.00 | 95 | 1014.8 |
| 20260507112521 | 17 | 0 | 0.0 | 0.0 | 0.00 | 0.00 | 0.00 | 95 | 1014.7 |
| 20260507112020 | 18 | 0 | 0.0 | 0.0 | 0.00 | 0.00 | 0.00 | 95 | 1014.8 |
| 20260507111541 | 17 | 0 | 0.0 | 0.0 | 0.00 | 0.00 | 0.00 | 95 | 1014.7 |
| 20260507111020 | 17 | 0 | 0.0 | 0.0 | 0.00 | 0.00 | 0.00 | 95 | 1014.6 |
| 20260507110520 | 17 | 0 | 0.0 | 0.0 | 0.00 | 0.00 | 0.00 | 94 | 1014.6 |
| 20260507110037 | 18 | 0 | 0.0 | 0.0 | 0.00 | 0.00 | 0.00 | 95 | 1014.6 |
| 20260507105520 | 18 | 0 | 0.0 | 0.0 | 0.00 | 0.00 | 0.00 | 95 | 1014.5 |
| 20260507105017 | 18 | 0 | 0.0 | 0.0 | 0.00 | 0.00 | 0.00 | 95 | 1014.5 |
| 20260507104536 | 18 | 0 | 0.0 | 0.0 | 0.00 | 0.00 | 0.00 | 95 | 1014.4 |
| 20260507104017 | 18 | 0 | 0.0 | 0.0 | 0.00 | 0.00 | 0.00 | 95 | 1014.3 |
| 20260507103517 | 18 | 0 | 0.0 | 0.0 | 0.00 | 0.00 | 0.00 | 95 | 1014.3 |
| 20260507103042 | 18 | 0 | 0.0 | 0.0 | 0.00 | 0.00 | 0.00 | 95 | 1014.3 |
| 20260507102517 | 18 | 0 | 0.0 | 0.0 | 0.00 | 0.00 | 0.00 | 95 | 1014.3 |
| 20260507102017 | 18 | 0 | 0.0 | 0.0 | 0.00 | 0.00 | 0.00 | 95 | 1014.2 |
| 20260507101558 | 18 | 0 | 0.0 | 0.0 | 0.00 | 0.00 | 0.00 | 95 | 1014.3 |
| 20260507101016 | 18 | 0 | 0.0 | 0.0 | 0.00 | 0.00 | 0.00 | 95 | 1014.3 |
| 20260507100516 | 18 | 0 | 0.0 | 0.0 | 0.00 | 0.00 | 0.00 | 95 | 1014.3 |
| 20260507100039 | 17 | 0 | 0.0 | 0.0 | 0.00 | 0.00 | 0.00 | 95 | 1014.3 |
| 20260507095516 | 17 | 0 | 0.0 | 0.0 | 0.00 | 0.00 | 0.00 | 95 | 1014.3 |
| 20260507095017 | 18 | 0 | 0.0 | 0.0 | 0.00 | 0.00 | 0.00 | 95 | 1014.2 |
| 20260507094541 | 17 | 0 | 0.0 | 0.0 | 0.00 | 0.00 | 0.00 | 95 | 1014.2 |
| 20260507094017 | 17 | 0 | 0.0 | 0.0 | 0.00 | 0.00 | 0.00 | 95 | 1014.2 |
| 20260507093521 | 17 | 0 | 0.0 | 0.0 | 0.00 | 0.00 | 0.00 | 95 | 1014.1 |
| 20260507093036 | 18 | 0 | 0.0 | 0.0 | 0.00 | 0.00 | 0.00 | 95 | 1014.1 |
| 20260507092525 | 18 | 0 | 0.0 | 0.0 | 0.00 | 0.00 | 0.00 | 95 | 1014.0 |
| 20260507092019 | 17 | 0 | 0.0 | 0.0 | 0.00 | 0.00 | 0.00 | 95 | 1013.9 |
| 20260507091555 | 18 | 0 | 0.0 | 0.0 | 0.00 | 0.00 | 0.00 | 95 | 1013.8 |
| 20260507091020 | 17 | 0 | 0.0 | 0.0 | 0.00 | 0.00 | 0.00 | 95 | 1014.0 |
| 20260507090521 | 18 | 0 | 0.0 | 0.0 | 0.00 | 0.00 | 0.00 | 95 | 1013.9 |
| 20260507090038 | 18 | 0 | 0.0 | 0.0 | 0.00 | 0.00 | 0.00 | 95 | 1013.7 |
| 20260507085517 | 18 | 0 | 0.0 | 0.0 | 0.00 | 0.00 | 0.00 | 95 | 1013.6 |
| 20260507085017 | 18 | 0 | 0.0 | 0.0 | 0.00 | 0.00 | 0.00 | 95 | 1013.8 |
| 20260507084541 | 18 | 0 | 0.0 | 0.0 | 0.00 | 0.00 | 0.00 | 95 | 1013.8 |
| 20260507084020 | 18 | 0 | 0.0 | 0.0 | 0.00 | 0.00 | 0.00 | 95 | 1013.8 |
| 20260507083520 | 18 | 0 | 0.0 | 0.0 | 0.00 | 0.00 | 0.00 | 95 | 1013.8 |
| 20260507083041 | 18 | 0 | 0.0 | 0.0 | 0.00 | 0.00 | 0.00 | 95 | 1013.9 |
| 20260507082521 | 18 | 0 | 0.0 | 0.0 | 0.00 | 0.00 | 0.00 | 95 | 1013.9 |
| 20260507082020 | 18 | 0 | 0.0 | 0.0 | 0.00 | 0.00 | 0.00 | 95 | 1013.8 |
| 20260507081550 | 18 | 0 | 0.0 | 0.0 | 0.00 | 0.00 | 0.00 | 95 | 1013.8 |
| 20260507081020 | 18 | 0 | 0.0 | 0.0 | 0.00 | 0.00 | 0.00 | 95 | 1013.9 |
| 20260507080519 | 18 | 0 | 0.0 | 0.0 | 0.00 | 0.00 | 0.00 | 95 | 1013.7 |
| 20260507080036 | 18 | 0 | 0.0 | 0.0 | 0.00 | 0.00 | 0.00 | 95 | 1013.8 |
| 20260507075520 | 19 | 0 | 0.0 | 0.0 | 0.00 | 0.00 | 0.00 | 95 | 1013.6 |
| 20260507075020 | 19 | 0 | 0.0 | 0.0 | 0.00 | 0.00 | 0.00 | 95 | 1013.5 |
| 20260507074539 | 18 | 0 | 0.0 | 0.0 | 0.00 | 0.00 | 0.00 | 95 | 1013.5 |
| 20260507074016 | 18 | 0 | 0.0 | 0.0 | 0.00 | 0.00 | 0.00 | 95 | 1013.6 |
| 20260507073517 | 18 | 0 | 0.0 | 3.2 | 0.00 | 0.00 | 0.00 | 94 | 1013.6 |
| 20260507073044 | 18 | 0 | 0.0 | 3.2 | 0.00 | 0.00 | 0.00 | 94 | 1013.7 |
| 20260507072517 | 19 | 238 | 1.6 | 3.2 | 0.00 | 0.00 | 0.00 | 94 | 1013.7 |
| 20260507072024 | 19 | 0 | 0.0 | 1.6 | 0.00 | 0.00 | 0.00 | 94 | 1013.7 |